This demonstration page uses our WeatherBlox Daily Observations layout. Learn more.

38.89511, -77.03637

Hourly Observations for January 16, 2018

Temp ( °F °C ) Dew Point ( °F °C ) Humidity (%) Winds ( mph kmh ) Pressure ( in mb ) Visibility ( mi km ) Precip ( " mm )
12:52 am 00:52 Cloudy 31 -0.6 28 -2.2 89 89 Calm 30.48 1032 10 16.0934 0 0
1:52 am 01:52 Cloudy 31 -0.6 28 -2.2 89 89 SE 5 7 30.46 1031 9 14.48406 0 0
2:07 am 02:07 Cloudy 31 -0.6 29 -1.7 92 92 S 3 6 30.48 1032 9 14.48406 0 0
2:41 am 02:41 Cloudy 31 -0.6 28 -2.2 89 89 SSE 5 7 30.48 1032 10 16.0934 0 0
2:52 am 02:52 Cloudy 31 -0.6 28 -2.2 89 89 SSE 5 7 30.47 1032 10 16.0934 0 0
3:38 am 03:38 Cloudy 31 -0.6 28 -2.2 89 89 SE 5 7 30.45 1031 10 16.0934 0 0
3:52 am 03:52 Cloudy 31 -0.6 28 -2.2 89 89 SE 5 7 30.46 1032 10 16.0934 0 0
4:13 am 04:13 Cloudy 31 -0.6 28 -2.2 89 89 SE 5 7 30.45 1031 10 16.0934 0 0
4:52 am 04:52 Cloudy 31 -0.6 28 -2.2 89 89 S 3 6 30.46 1032 10 16.0934 0 0
5:46 am 05:46 Cloudy 30 -1 27 -3 86 86 SE 6 9 30.48 1032 10 16.0934 0 0
5:52 am 05:52 Cloudy 30 -1.1 27 -2.8 88 88 SSE 5 7 30.48 1032 10 16.0934 0 0
6:15 am 06:15 Cloudy 30 -1.1 27 -2.8 88 88 SSE 5 7 30.5 1033 10 16.0934 0 0
6:52 am 06:52 Cloudy 30 -1.1 27 -2.8 88 88 SE 5 7 30.49 1033 10 16.0934 0 0
6:59 am 06:59 Cloudy 30 -1.1 27 -2.8 88 88 SE 3 6 30.5 1033 10 16.0934 0 0
7:14 am 07:14 Cloudy 30 -1.1 27 -2.8 88 88 ESE 3 6 30.5 1033 10 16.0934 0 0
7:52 am 07:52 Cloudy 30 -1.1 27 -2.8 88 88 SE 6 9 30.49 1032 10 16.0934 0 0
8:04 am 08:04 Cloudy 30 -1.1 27 -2.8 88 88 ESE 5 7 30.5 1033 10 16.0934 0 0
8:52 am 08:52 Cloudy 30 -1.1 27 -2.8 88 88 SSE 3 6 30.5 1033 10 16.0934 0 0
9:50 am 09:50 Cloudy 32 0 27 -3 80 80 VRB 3 6 30.5 1033 10 16.0934 0 0
9:52 am 09:52 Cloudy 32 0 27 -2.8 82 82 SE 3 6 30.5 1033 10 16.0934 0 0
10:33 am 10:33 Cloudy 32 0 27 -2.8 82 82 Calm 30.5 1033 10 16.0934 0 0
10:52 am 10:52 Cloudy 33 0.6 27 -2.8 78 78 SSW 3 6 30.48 1032 10 16.0934 0 0
11:52 am 11:52 Cloudy 35 1.7 26 -3.3 70 70 SE 3 6 30.45 1031 10 16.0934 0 0
12:52 pm 12:52 Cloudy 38 3.3 24 -4.4 57 57 S 7 11 30.42 1030 10 16.0934 0 0
1:52 pm 13:52 Cloudy 38 3.3 25 -3.9 60 60 SSE 5 7 30.39 1029 10 16.0934 0 0
2:52 pm 14:52 Mostly Cloudy 41 5 24 -4.4 51 51 Calm 30.37 1029 10 16.0934 0 0
3:52 pm 15:52 Mostly Cloudy 41 5 25 -3.9 53 53 NE 3 6 30.36 1028 10 16.0934 0 0
4:52 pm 16:52 Cloudy 41 5 24 -4.4 51 51 Calm 30.37 1029 10 16.0934 0 0
5:52 pm 17:52 Cloudy 39 3.9 25 -3.9 57 57 S 5 7 30.36 1028 10 16.0934 0 0
6:52 pm 18:52 Cloudy 38 3.3 25 -3.9 60 60 SSE 3 6 30.36 1028 10 16.0934 0 0
7:52 pm 19:52 Cloudy 39 3.9 23 -5 53 53 Calm 30.36 1028 10 16.0934 0 0
8:52 pm 20:52 Cloudy 37 2.8 25 -3.9 62 62 Calm 30.36 1028 10 16.0934 0 0
9:52 pm 21:52 Cloudy 37 2.8 26 -3.3 65 65 NE 5 7 30.35 1028 10 16.0934 0 0
10:52 pm 22:52 Cloudy 36 2.2 28 -2.2 73 73 N 5 7 30.35 1028 10 16.0934 0 0
11:52 pm 23:52 Cloudy 38 3.3 27 -2.8 65 65 NW 13 20 30.35 1028 10 16.0934 0 0

Powered by AerisWeather